AFR68 LFPG-KPHX

Flight info

Callsign AFR68
Flight time N/A
Altitude 30000
Route ATREX DCT VESAN DCT RATUK DCT SOVAT/N0485F360 DCT LESTA UP6 RODOL UM65 TENSO L603 BELOX DCT GOTNA DCT APSOV DCT SUNOT/M085F380 DCT 58N020W 58N030W 58N040W 57N050W DCT HOIST/N0497F380 DCT ELINU/N0491F400 DCT YMT DCT SSM J101 GRB DCT MCW DCT EAR DCT LAA J102 GUP EAGUL6
Aircraft A359/H-SDE2E3GHIJ3J4J5LM1ORWXY/LB1D1

Departure

Time 2026-05-05 08:18
Airport Charles de Gaulle International Airport (LFPG)

Arrival

Time N/A
Airport Phoenix Sky Harbor International Airport (KPHX)
Time Latitude Longitude Altitude Speed Heading
2026-05-05 08:09 49.00063 2.57610 368 ft 4 kts 52°
2026-05-05 08:09 49.00053 2.57576 365 ft 3 kts 84°
2026-05-05 08:09 49.00053 2.57570 365 ft 1 kts 85°
2026-05-05 08:12 49.00053 2.57573 365 ft 1 kts 85°
2026-05-05 08:13 49.00055 2.57610 365 ft 6 kts 85°
2026-05-05 08:13 49.00048 2.57697 365 ft 10 kts 115°
2026-05-05 08:13 48.99994 2.57717 366 ft 8 kts 217°
2026-05-05 08:13 48.99975 2.57633 367 ft 9 kts 264°
2026-05-05 08:14 48.99968 2.57519 360 ft 13 kts 265°
2026-05-05 08:14 48.99960 2.57356 366 ft 17 kts 265°
2026-05-05 08:14 48.99950 2.57176 365 ft 18 kts 264°
2026-05-05 08:14 48.99940 2.56989 364 ft 18 kts 265°
2026-05-05 08:15 48.99929 2.56791 368 ft 19 kts 266°
2026-05-05 08:15 48.99919 2.56586 367 ft 20 kts 266°
2026-05-05 08:15 48.99908 2.56374 363 ft 20 kts 265°
2026-05-05 08:15 48.99897 2.56155 365 ft 21 kts 265°
2026-05-05 08:16 48.99892 2.55960 360 ft 17 kts 276°
2026-05-05 08:16 48.99893 2.55831 364 ft 11 kts 240°
2026-05-05 08:16 48.99826 2.55801 367 ft 11 kts 179°
2026-05-05 08:16 48.99745 2.55807 365 ft 12 kts 175°
2026-05-05 08:17 48.99658 2.55818 367 ft 12 kts 175°
2026-05-05 08:17 48.99606 2.55887 368 ft 10 kts 103°
2026-05-05 08:17 48.99605 2.55924 367 ft 0 kts 88°
2026-05-05 08:17 48.99612 2.56073 365 ft 43 kts 85°
2026-05-05 08:18 48.99655 2.56851 366 ft 105 kts 85°
2026-05-05 08:18 48.99729 2.58233 368 ft 156 kts 85°
2026-05-05 08:18 48.99813 2.60066 648 ft 179 kts 86°
2026-05-05 08:18 48.99876 2.61910 1542 ft 170 kts 84°
2026-05-05 08:19 48.99954 2.63778 2008 ft 185 kts 84°
2026-05-05 08:19 49.00067 2.65827 2334 ft 203 kts 84°
2026-05-05 08:19 49.00218 2.68048 2664 ft 219 kts 83°
2026-05-05 08:19 49.00379 2.70478 2934 ft 242 kts 84°
2026-05-05 08:20 49.00573 2.73089 3640 ft 251 kts 83°
2026-05-05 08:20 49.00914 2.75700 4357 ft 256 kts 71°
2026-05-05 08:20 49.01845 2.78023 4953 ft 261 kts 47°
2026-05-05 08:20 49.03376 2.79541 5498 ft 268 kts 20°
2026-05-05 08:21 49.05213 2.79804 6178 ft 272 kts 354°
2026-05-05 08:21 49.07052 2.78984 6925 ft 274 kts 341°
2026-05-05 08:21 49.08825 2.77939 7572 ft 278 kts 342°
2026-05-05 08:21 49.10631 2.76873 8413 ft 280 kts 342°
2026-05-05 08:22 49.12465 2.75796 9195 ft 284 kts 342°
2026-05-05 08:22 49.14317 2.74708 9921 ft 286 kts 342°
2026-05-05 08:22 49.16209 2.73604 10336 ft 298 kts 342°
2026-05-05 08:22 49.18203 2.72446 10618 ft 315 kts 342°
2026-05-05 08:23 49.20301 2.71225 10915 ft 330 kts 341°
2026-05-05 08:23 49.22497 2.69943 11261 ft 345 kts 341°
2026-05-05 08:23 49.24792 2.68604 11549 ft 360 kts 341°
2026-05-05 08:23 49.27171 2.67215 11904 ft 371 kts 340°
2026-05-05 08:24 49.29600 2.65794 12448 ft 376 kts 341°
2026-05-05 08:24 49.32062 2.64352 13059 ft 380 kts 341°